Location: College Park
(38.9810°N, 76.9370°W)
Time: 16:47:20
(UTC-04:00)

ISS - Pass Details

Date: 08 March 2018
Orbit: 402 x 407 km, 51.6° (Epoch: 25 June)

Event Time Altitude Azimuth Distance (km) Brightness Sun altitude
Exits shadow 04:21:36 11° 11° (NNE) 1,409 -0.8 -25.6°
Drops below altitude 10° 04:22:02 10° 18° (NNE) 1,499 -0.6 -25.5°
Sets 04:24:48 0° 43° (NE) 2,342 0.9 -25.0°
